Weather History for Daytona Beach, FL

Change the Weather History Date:

Thursday, August 29, 2013

  Actual Average Record
Temperature  
Mean Temperature 82 °F 81 °F  
Max Temperature 92 °F 89 °F 96 °F (1938)
Min Temperature 72 °F 73 °F 68 °F (1955)
Degree Days  
Heating Degree Days 0 0  
Month to date heating degree days 0 0  
Since 1 June heating degree days 0 0  
Since 1 July heating degree days 0 0  
Cooling Degree Days 17 16  
Month to date cooling degree days 513 481  
Year to date cooling degree days 2160 2044  
Since 1 June cooling degree days 1508 1443  
Growing Degree Days 32 (Base 50)    
Moisture  
Dew Point 70 °F    
Average Humidity 70    
Maximum Humidity 93    
Minimum Humidity 47    
Precipitation  
Precipitation 0.00 in 0.21 in 3.62 in (1968)
Month to date precipitation 5.72 5.97  
Year to date precipitation 34.73 32.70  
Sea Level Pressure  
Sea Level Pressure 30.00 in    
Wind  
Wind Speed 5 mph (SW)    
Max Wind Speed 10 mph    
Max Gust Speed 15 mph    
Visibility 10 miles    
Events      
T = Trace of Precipitation, MM = Missing Value Source: NWS Daily Summary

Daily Weather History Graph

Daily Weather History Graph

Search for Another Location

Airport:

Trip Planner

Search our weather history database for the weather conditions in past years. The results will help you decide how hot, cold, wet, or windy it might be!

Date:

Astronomy

Aug. 29, 2013 Rise Set
Actual Time 7:00 AM EDT 7:49 PM EDT
Civil Twilight 6:36 AM EDT 8:13 PM EDT
Nautical Twilight 6:07 AM EDT 8:41 PM EDT
Astronomical Twilight 5:38 AM EDT 9:11 PM EDT
Moon 1:04 AM EDT 3:02 PM EDT
Length of Visible Light 13h 37m
Length of Day
12h 48m
Last Quarter, 38% of the Moon is Illuminated
Aug 29
Last Quarter
Sep 5
New
Sep 12
First Quarter
Sep 19
Full
Sep 26
Last Quarter

Hourly Weather History & Observations

Time (EDT) Temp. Heat Index Dew Point Humidity Pressure Visibility Wind Dir Wind Speed Gust Speed Precip Events Conditions
12:53 AM 73.9 °F - 70.0 °F 87% 30.04 in 10.0 mi SSW 3.5 mph - N/A   Partly Cloudy
1:53 AM 73.0 °F - 69.1 °F 87% 30.04 in 10.0 mi SW 4.6 mph - N/A   Partly Cloudy
2:53 AM 73.0 °F - 69.1 °F 87% 30.04 in 10.0 mi SW 3.5 mph - N/A   Partly Cloudy
3:53 AM 72.0 °F - 69.1 °F 91% 30.03 in 10.0 mi SSW 3.5 mph - N/A   Scattered Clouds
4:53 AM 72.0 °F - 69.1 °F 91% 30.02 in 10.0 mi Calm Calm - N/A   Partly Cloudy
5:53 AM 73.0 °F - 69.1 °F 87% 30.02 in 10.0 mi Calm Calm - N/A   Clear
6:53 AM 73.0 °F - 69.1 °F 87% 30.03 in 10.0 mi Calm Calm - N/A   Partly Cloudy
7:53 AM 75.0 °F - 71.1 °F 87% 30.03 in 10.0 mi West 5.8 mph - N/A   Partly Cloudy
8:53 AM 79.0 °F - 72.0 °F 79% 30.03 in 10.0 mi WSW 6.9 mph - N/A   Partly Cloudy
9:53 AM 82.9 °F 87.0 °F 70.0 °F 65% 30.04 in 10.0 mi WNW 8.1 mph - N/A   Clear
10:53 AM 84.9 °F 88.8 °F 69.1 °F 59% 30.04 in 10.0 mi NW 6.9 mph - N/A   Clear
11:53 AM 88.0 °F 92.9 °F 70.0 °F 55% 30.03 in 10.0 mi WNW 8.1 mph - N/A   Partly Cloudy
12:53 PM 90.0 °F 92.8 °F 66.9 °F 46% 30.01 in 10.0 mi Variable 4.6 mph - N/A   Partly Cloudy
1:53 PM 91.9 °F 95.9 °F 68.0 °F 45% 30.01 in 10.0 mi West 8.1 mph - N/A   Scattered Clouds
2:53 PM 89.1 °F 93.7 °F 69.1 °F 52% 29.99 in 10.0 mi WNW 3.5 mph - N/A   Scattered Clouds
3:53 PM 89.1 °F 94.1 °F 70.0 °F 53% 29.96 in 10.0 mi ESE 6.9 mph - N/A   Scattered Clouds
4:53 PM 88.0 °F 93.8 °F 71.1 °F 57% 29.95 in 10.0 mi East 8.1 mph - N/A   Scattered Clouds
5:53 PM 88.0 °F 93.8 °F 71.1 °F 57% 29.94 in 10.0 mi Variable 5.8 mph - N/A   Scattered Clouds
6:53 PM 86.0 °F 90.1 °F 69.1 °F 57% 29.94 in 10.0 mi SE 4.6 mph - N/A   Scattered Clouds
7:53 PM 84.0 °F 87.8 °F 69.1 °F 61% 29.95 in 10.0 mi Calm Calm - N/A   Scattered Clouds
8:53 PM 82.0 °F 85.9 °F 70.0 °F 67% 29.96 in 10.0 mi Calm Calm - N/A   Scattered Clouds
9:53 PM 80.1 °F 83.6 °F 71.1 °F 74% 29.97 in 10.0 mi South 3.5 mph - N/A   Partly Cloudy
10:53 PM 79.0 °F - 70.0 °F 74% 29.99 in 10.0 mi South 5.8 mph - N/A   Partly Cloudy
11:53 PM 79.0 °F - 71.1 °F 77% 29.99 in 10.0 mi South 6.9 mph - N/A   Partly Cloudy